#timestamp,LO_Frequency,Hit,StdDev 
1512111615.3,286047001.5,N
1512111635.2,286047003.9,Y
1512111655.0,286046999.9,P
1512111655.9,286046999.9,N
1512111675.8,286047001.0,N
1512111695.6,286046998.7,N
1512111715.4,286046998.5,N
1512111735.3,286047000.3,N
1512111755.1,286046999.9,N
1512111775.9,286047000.0,N
1512111795.7,286047002.4,N
1512111815.5,286046999.8,N
1512111835.4,286047000.0,N
1512111855.2,286047000.6,N
1512111875.0,286047000.5,N
1512111875.9,286047000.5,N
1512111895.8,286047000.5,N
1512111915.6,286047000.3,N
1512111935.5,286047000.6,N
1512111955.3,286046999.8,N
1512111975.1,286047000.0,N
1512111995.9,286047002.7,Y
1512112015.7,286047000.0,P
1512112035.6,286046998.1,P
1512112055.4,286047000.1,N
1512112075.2,286047000.7,N
1512112095.1,286047000.1,N
1512112096.0,286047000.1,N
1512112115.8,286047002.7,Y
1512112135.6,286047001.8,P
1512112155.5,286047001.6,N
1512112175.3,286047002.3,N
1512112195.2,286047001.3,N
1512112215.9,286047001.0,N
1512112235.7,286047000.0,N
1512112255.6,286047000.0,N
1512112275.4,286047000.6,N
1512112295.2,286047000.1,N
1512112315.1,286047000.2,N
1512112316.0,286047000.2,N
1512112335.8,286047001.6,N
1512112355.7,286047000.1,N
1512112375.5,286047002.8,Y
1512112395.3,286046998.5,P
1512112415.2,286046998.7,N
1512112435.0,286047001.0,N
1512112435.9,286047001.0,N
1512112455.8,286047000.9,N
1512112475.6,286047000.4,N
1512112495.4,286046999.7,N
1512112515.3,286047000.0,N
1512112535.1,286046999.7,N
1512112555.8,286047000.3,N
1512112575.7,286047000.1,N
1512112595.5,286047000.9,N
1512112615.4,286047000.0,N
1512112635.2,286046998.8,N
1512112655.0,286046998.1,N
1512112655.9,286046998.1,N
1512112675.8,286047000.9,N
1512112695.6,286046999.8,N
1512112715.4,286047001.0,N
1512112735.3,286047000.2,N
1512112755.1,286047000.4,N
1512112775.9,286047000.4,N
1512112795.7,286047000.0,N
1512112815.5,286047002.3,N
1512112835.4,286047002.6,N
1512112855.2,286047000.2,N
1512112875.0,286047000.9,N
1512112875.9,286047000.9,N
1512112895.8,286047002.7,N
1512112915.6,286047002.2,N
1512112935.5,286047002.4,N
1512112955.3,286047000.9,N
1512112975.1,286047000.7,N
1512112995.9,286047000.7,N
1512113015.7,286047002.7,N
1512113035.6,286047000.3,N
1512113055.4,286047000.3,N
1512113075.2,286047000.5,N
1512113095.1,286047001.2,N
1512113096.0,286047001.2,N
1512113115.8,286047001.1,N
1512113135.7,286047000.5,N
1512113155.5,286047001.0,N
1512113175.3,286046998.5,N
1512113195.2,286046998.3,N
1512113215.0,286046998.5,N
1512113215.9,286046998.5,N
1512113235.7,286046998.3,N
1512113255.6,286046998.1,N
1512113275.4,286046998.2,N
1512113295.3,286047000.3,N
1512113315.1,286047001.9,N
1512113316.0,286047001.9,N
1512113335.8,286047002.0,N
1512113355.7,286047000.7,N
1512113375.5,286046998.3,N
1512113395.4,286047000.9,N
1512113415.2,286046998.5,N
1512113435.0,286047000.9,N
1512113435.9,286047000.9,N
1512113455.8,286046999.6,N
1512113475.6,286046999.2,N
1512113495.4,286046998.2,N
1512113515.3,286046998.3,N
1512113535.1,286046998.6,N
1512113555.9,286046999.6,N
1512113575.7,286046999.0,N
1512113595.5,286046998.1,N
1512113615.4,286046999.1,N
1512113635.2,286046999.3,N
1512113655.1,286046997.8,N
1512113656.0,286046997.8,N
1512113675.8,286046995.0,Y
1512113695.6,286046995.7,P
1512113715.5,286046995.8,N
1512113735.3,286046996.0,N
1512113755.2,286046995.2,Y
1512113775.9,286046999.5,P
1512113795.7,286046998.4,N
1512113815.6,286047000.7,N
1512113835.4,286047001.1,N
1512113855.2,286047000.4,N
1512113875.1,286047000.3,N
1512113876.0,286047000.3,N
1512113895.8,286046998.9,N
1512113915.7,286047001.2,N
1512113935.5,286046999.0,N
1512113955.3,286046998.7,N
1512113975.2,286046998.7,N
1512113995.0,286046996.5,N
1512113995.9,286046996.5,N
1512114015.8,286046996.9,N
1512114035.6,286046999.6,N
1512114055.4,286046999.2,N
1512114075.3,286046998.9,N
1512114095.1,286046996.9,N
1512114115.8,286046996.5,N
1512114135.7,286046997.1,N
1512114155.5,286046999.2,N
1512114175.4,286046998.9,N
1512114195.2,286046998.9,N
1512114215.0,286046998.4,N
1512114215.9,286046998.4,N
1512114235.8,286046998.5,N
1512114255.6,286046996.6,N
1512114275.4,286046996.8,N
1512114295.3,286046996.5,N
1512114315.1,286046995.4,Y
1512114335.9,286046996.9,P
1512114355.7,286046997.1,P
1512114375.5,286046997.3,P
1512114395.4,286046997.8,Y
1512114415.2,286047001.2,P
1512114435.0,286047001.2,N
1512114436.0,286047001.2,N
1512114455.8,286046998.8,N
1512114475.6,286046998.6,N
1512114495.5,286046998.5,N
1512114515.3,286047001.2,N
1512114535.1,286047001.0,N
1512114555.9,286047000.1,N
1512114575.7,286047000.9,N
1512114595.6,286046999.9,N
1512114615.4,286046999.8,N
1512114635.2,286047002.7,N
1512114655.1,286047002.3,N
1512114656.0,286047002.3,N
1512114675.8,286047000.7,N
1512114695.7,286046998.8,N
1512114715.5,286046996.6,N
1512114735.3,286046997.3,N
1512114755.2,286046996.8,N
1512114775.9,286046997.7,N
1512114795.7,286046995.0,N
1512114815.6,286046996.2,N
1512114835.4,286046995.9,N
1512114855.3,286046994.0,N
1512114875.1,286046994.3,N
1512114895.8,286046997.6,N
1512114915.7,286046998.3,N
1512114935.5,286046998.7,N
1512114955.4,286046999.1,N
1512114975.2,286046999.4,N
1512114995.0,286046996.9,N
1512114995.9,286046996.9,N
1512115015.8,286046999.3,N
1512115035.6,286046997.6,N
1512115055.4,286046997.7,N
1512115075.3,286046996.8,N
1512115095.1,286046998.8,N
1512115115.9,286046998.2,N
1512115135.7,286046997.3,N
1512115155.5,286046997.5,N
1512115175.4,286046996.5,N
1512115195.2,286046998.9,N
